Regional Weather Roundup
Issued by NWS

Home | Current Version | Previous Version | Text Only | Print | Product List | Glossary Off
Versions: 1 2 3 4 5 6 7 8 9 10 11 12 13 14 15 16 17 18 19 20 21 22 23 24 25 26 27 28 29 30 31 32 33 34 35 36 37 38 39 40 41 42 43 44 45 46 47 48 49 50

000
ASUS45 KSLC 051010
RWRUT

UTAH REGIONAL WEATHER ROUNDUP
NATIONAL WEATHER SERVICE SALT LAKE CITY UT
400 AM MDT SUN JUL 05 2015

UTZ001>011-023>025-051100-

NORTHERN UTAH

CITY           SKY/WX    TMP DP  RH WIND       PRES   REMARKS
BRIGHAM CITY   CLOUDY    79  55  42 CALM      29.96S
HILL AFB       CLOUDY    77  55  45 SE2       30.00R
LOGAN          CLOUDY    76  53  44 CALM      29.96R
OGDEN          CLOUDY    77  56  48 S5        29.97R
PROVO AIRPORT  CLOUDY    75  52  43 S5        29.99S
SALT LAKE CITY LGT RAIN  79  58  48 SE5       29.94S
VERNAL         CLOUDY    70  54  56 CALM      30.07R
WENDOVER       CLOUDY    79  50  36 NW15      29.96S
HEBER CITY     CLOUDY    64  54  68 CALM      30.08R
WEST JORDAN    PTCLDY    75  55  50 S12       29.98S

$$

UTZ012>022-026-027-051100-

SOUTHERN/CENTRAL UTAH

CITY           SKY/WX    TMP DP  RH WIND       PRES   REMARKS
BLANDING       CLOUDY    62  60  94 E6        30.23F
BRYCE CANYON   CLOUDY    60  53  77 W6        30.26S
CEDAR CITY     MOCLDY    69  47  45 SE7       30.10F
DELTA          CLOUDY    73  52  47 S7        30.01S
HANKSVILLE     CLOUDY    64  63  94 CALM      30.11F
MILFORD        CLOUDY    73  48  41 S12       30.04R
MOAB/CYNLANDS  LGT RAIN  67  64  90 NW5       30.08R
PRICE          CLOUDY    66  56  70 E7        30.17F
ST GEORGE      CLOUDY    79  46  31 E5        29.94R
KANAB          PTCLDY    63  54  72 CALM      30.14R

$$

REGIONAL REPORTS     COLORADO/ARIZONA

CITY           SKY/WX    TMP DP  RH WIND       PRES   REMARKS
CRAIG, CO      CLOUDY    62  53  72 CALM      30.14R
GRAND JUNCTION CLOUDY    66  60  81 NW15      30.10S
RIFLE          CLOUDY    64  57  78 E5        30.12F
MONTROSE       CLOUDY    69  53  56 NW7       30.16S
CORTEZ         CLOUDY    63  57  81 NE3       30.18F
PAGE, AZ       MOCLDY    78  51  38 CALM      30.01S
GRAND CANYON   MOCLDY    55  51  86 CALM      30.22F
KINGMAN        CLEAR     75  50  41 S3        29.98R
FLAGSTAFF      CLOUDY    58  57  97 CALM      30.26S

$$

REGIONAL REPORTS    NEVADA/IDAHO/WYOMING

CITY           SKY/WX    TMP DP  RH WIND       PRES   REMARKS
LAS VEGAS, NV  PTCLDY    90  49  24 SW5       29.81R
ELY            PTCLDY    58  48  69 S5        30.14S
ELKO           CLOUDY    65  55  70 SW9       30.08R
POCATELLO, ID  CLEAR     78  48  34 SW18G26   29.94S
BURLEY         CLOUDY    74  53  48 W10       29.92R
EVANSTON, WY   CLOUDY    64  49  57 SW13      30.15S
ROCK SPRINGS   MOCLDY    69  46  43 SW9       30.10R
KEMMERER       CLOUDY    64  45  48 W9        30.14S

$$


USA.gov is the U.S. government's official web portal to all federal, state and local government web resources and services.